Simultaneous Nadir Overpasses (SNOs) Predictions

Prediction of SNOs between AURA and NPP Satellite Orbit:

Table of predicted SNOs for the next 14.0 days since TLE Epoch: 9/23/2016
Index Date (AURA) Time (AURA) Lat,Lon (AURA) SZA (AURA ) Date (NPP) Time (NPP) Lat,Lon (NPP) SZA (NPP ) Distance(km) Time Diff (sec)
1 09/24/2016 02:51:39 -79.19,-148.30 86.91 09/24/2016 02:51:24 -79.18,-148.36 86.89 1.32 15
2 09/24/2016 03:40:58 79.46, 21.12 92.73 09/24/2016 03:42:01 79.45, 21.00 92.71 2.73 63
3 09/26/2016 18:18:47 78.99, 158.77 94.32 09/26/2016 18:17:42 78.99, 158.75 94.37 0.39 65
4 09/26/2016 19:08:06 -79.32, -31.58 86.11 09/26/2016 19:08:18 -79.32, -31.58 86.12 0.04 12
5 09/29/2016 10:35:12 79.16, -84.36 95.08 09/29/2016 10:34:34 79.17, -84.28 95.09 1.94 38
6 09/29/2016 11:24:31 -79.48, 85.37 85.35 09/29/2016 11:25:10 -79.48, 85.48 85.40 2.34 39
7 10/02/2016 02:51:41 79.20, 31.74 96.01 10/02/2016 02:51:31 79.19, 31.68 96.03 1.21 10
8 10/02/2016 03:41:01 -79.48,-158.77 84.37 10/02/2016 03:42:08 -79.48,-158.81 84.41 0.80 67
9 10/04/2016 18:18:50 -79.00, -21.25 82.76 10/04/2016 18:17:50 -78.99, -21.33 82.70 2.05 60
10 10/04/2016 19:08:06 79.38, 148.81 96.74 10/04/2016 19:08:23 79.39, 148.94 96.70 3.03 17
11 10/07/2016 10:35:14 -79.22, 95.98 82.08 10/07/2016 10:34:41 -79.23, 96.12 82.08 3.02 33




NCC Satellite Simultaneous Nadir Overpasses (SNOs) Prediction Service
